Terug naar catalogus

FENGYUN 1C DEB

ActiefSSO
NORAD 29912·DEBRIS·🇨🇳 China

Gelanceerd May 10, 1999 vanaf Taiyuan Satellite Launch Center

Loading…

Volgende Passages (komende 24 uur)

TLE

VersSource: Space-Track

Epoch: Sep 13, 2026, 20:50 UTC

1 29912U 99025HJ  26256.86834208  .00003355  00000-0  94555-3 0  9995
2 29912  98.7432   7.0179 0040970 117.7655   8.4725 14.45970812 20104

Volg FENGYUN 1C DEB in realtime met AllMySat

Download on the App Store